Miscellaneous Local Product
Issued by NWS North Platte, NE

Home | Current Version | Previous Version | Text Only | Print | Product List | Glossary On
Versions: 1 2 3 4 5 6 7 8 9 10 11 12 13 14 15 16 17 18 19 20 21 22 23 24 25 26 27 28 29 30 31 32 33 34 35 36 37 38 39 40 41 42 43 44 45 46 47 48 49 50
000
AXUS43 KLBF 250910
MISLBF


WESTERN AND NORTH CENTRAL NEBRASKA HOURLY WEATHER ROUNDUP
NATIONAL WEATHER SERVICE NORTH PLATTE NE
300 AM CST SAT FEB 25 2017

NOTE: "FAIR" INDICATES FEW OR NO CLOUDS BELOW 12,000 FEET WITH NO
SIGNIFICANT WEATHER AND/OR OBSTRUCTIONS TO VISIBILITY.

NOTE: STATIONS NOT REPORTING VARIABLES SUCH AS SKY/WEATHER OR
PRESSURE ARE PROVIDED BY RAWS AND APRS NETWORKS AND ARE NOT UNDER
NATIONAL WEATHER SERVICE QUALITY CONTROL.

...OBSERVATIONS IN AND NEAR THE EASTERN PANHANDLE OF NEBRASKA...

CITY           SKY/WX    TMP DP  RH WIND       PRES   REMARKS
PINE RIDGE     CLOUDY     4   1  88 NW3       30.00F
CHADRON        PTCLDY     3  -2  79 CALM      30.01F
ALLIANCE       FOG       -7 -10  87 W6        29.99F VSB 1/4 WCI -20
SIDNEY         CLEAR      4   0  83 W8        30.00F WCI  -9
CRESCENT LAKE    N/A     10   8  92 CALM        N/A
$$

...OBSERVATIONS IN NORTHERN NEBRASKA AND FAR SOUTHERN SOUTH DAKOTA...

CITY           SKY/WX    TMP DP  RH WIND       PRES   REMARKS
WINNER         CLOUDY    15   9  76 SW6       30.07F WCI   6
VALENTINE      CLOUDY     2  -1  88 W3        30.06F
THEDFORD       CLOUDY     5   3  88 CALM      30.07F
AINSWORTH      CLOUDY     4   2  88 SW6       30.06F WCI  -6
O`NEILL        CLOUDY    10   7  85 W8        30.09F WCI  -2
ORD            CLOUDY     6   2  83 NW3       30.11S
BROKEN BOW     CLOUDY    14   8  77 NW8       30.09F WCI   3
VALENTINE NWR    N/A      9   6  86 SW5         N/A  WCI   1
BUTTE            N/A     14  10  85 W3          N/A
HALSEY           N/A      8   5  86 CALM        N/A
CHAMBERS         N/A     10   1  68 W3          N/A
EWING            N/A      8   5  86 NW5         N/A  WCI   0
$$

...OBSERVATIONS IN SOUTHWEST NEBRASKA AND FAR NORTHEAST COLORADO...

CITY           SKY/WX    TMP DP  RH WIND       PRES   REMARKS
HOLYOKE        FAIR      10   5  79 SW7       30.05F WCI   0
IMPERIAL       CLEAR     11   7  84 SW3       30.09F
OGALLALA       PTCLDY     4   1  86 CALM      30.07F
NORTH PLATTE   CLOUDY     7   2  80 CALM      30.10F
MCCOOK         CLEAR     11   9  92 W6        30.14F WCI   1
LEXINGTON      CLEAR     12   6  79 W7        30.13F WCI   1
STAPLETON        N/A      8   5  87 CALM        N/A
GOTHENBURG       N/A     11   7  82 CALM        N/A
CALLAWAY         N/A      9   6  87 CALM        N/A
$$

...OBSERVATIONS IN CENTRAL LINCOLN COUNTY AREA...

CITY           SKY/WX    TMP DP  RH WIND       PRES   REMARKS
N.P. AIRPORT   CLOUDY     7   2  80 CALM      30.10F
N.P. DOWNTOWN    N/A     18  11  74 W3          N/A
N.P. SOUTHEAST   N/A     12   9  87 CALM        N/A
N.P. HILLCREST   N/A     11   8  89 CALM        N/A
$$

...SOME OBSERVATIONS FROM AROUND THE REGION...

CITY           SKY/WX    TMP DP  RH WIND       PRES   REMARKS
LARAMIE        CLOUDY    10   0  63 W14       29.87F WCI  -6
CHEYENNE       CLOUDY    12   3  67 W10       29.91F WCI  -1
DENVER         CLOUDY    19  13  77 SW9       29.97F WCI   8
AKRON          CLOUDY    16  10  77 SW10      30.00F WCI   4
SCOTTSBLUFF    CLOUDY     3  -1  83 CALM      30.00F
RAPID CITY     CLOUDY    10   7  87 NW3       29.97F
BISMARCK       CLOUDY    15  12  88 CALM      30.00F
PIERRE         CLOUDY    21  15  78 SW3       30.06F
SIOUX FALLS    CLEAR     16  13  88 NW12      30.05F WCI   3
OMAHA          CLEAR     19  12  74 NW15      30.09R WCI   5
GRAND ISLAND   CLOUDY    13   9  84 W10       30.13S WCI   0
KANSAS CITY    MOCLDY    26  18  71 NW10      30.07S WCI  16
WICHITA        CLEAR     20  15  81 NW8       30.18F WCI  10
OKLAHOMA CITY  PTCLDY    28  19  69 N14       30.18F WCI  17
DALLAS         CLEAR     42  25  50 NE16      30.12R
AMARILLO       CLEAR     22  15  75 NE5       30.14S WCI  16
DODGE CITY     CLEAR     10   6  84 NW7       30.16F WCI  -1
HAYS           CLEAR     15  11  83 NW9       30.18F WCI   3
GOODLAND       CLEAR     10   5  80 SW5       30.08F WCI   2
$$




USA.gov is the U.S. government's official web portal to all federal, state and local government web resources and services.